contacte
inicio
- ACTUALIZADO a las 19:33
Cámara en vivo
A 5 metros de altura
Dirección Noreste
Datos del día de Ayer
24/4/20
Time         Wind Dir   Wind Spd  Wind Gust     Hum In   Humidity    Temp In       Temp  Raw Barom   Tot Rain
                    °      km/hr      km/hr          %          %         °C         °C         mb         mm
0:00              253          2          5         59         76       23.6       17.2    1011.76     202.20
0:20              261          0          3         59         76       23.6       16.8    1011.76     202.20
0:40              276          0          2         59         77       23.5       16.4    1011.79     202.20
1:00              277          0          2         59         78       23.5       16.2    1011.89     202.20
1:20              277          0          2         59         78       23.5       16.1    1011.72     202.20
1:40              279          0          3         58         78       23.4       15.9    1011.69     202.20
2:00              285          0          3         58         80       23.4       15.4    1011.72     202.20
2:20              285          2          2         58         80       23.4       15.2    1011.69     202.20
2:40              302          0          3         58         79       23.2       14.9    1011.42     202.20
3:00              302          0          3         58         79       23.3       14.9    1011.39     202.20
3:20              302          0          3         58         80       23.2       14.7    1011.35     202.20
3:40              313          0          3         58         80       23.1       14.5    1011.18     202.20
4:00              334          3          3         58         79       23.1       14.4    1010.95     202.20
4:20              355          6          6         58         78       22.9       14.7    1010.71     202.20
4:40              355          2          6         57         78       22.8       14.6    1010.54     202.20
5:00              355          3          8         57         78       22.8       14.6    1010.37     202.20
5:20              355          2          6         57         79       22.8       14.6    1010.41     202.20
5:40              355          0          3         57         81       22.7       14.2    1010.17     202.20
6:00              355          0          6         57         82       22.6       13.9    1010.03     202.20
6:20              355          0          3         57         82       22.6       13.8    1009.93     202.20
6:40              360          2          3         57         82       22.4       13.9    1009.87     202.20
7:00               17          2          5         57         81       22.4       13.9    1009.87     202.20
7:20                5          3          6         57         81       22.4       13.8    1009.76     202.20
7:40               17          3          5         57         81       22.3       13.7    1009.73     202.20
8:00                9          3          6         57         82       22.1       13.5    1009.80     202.20
8:20               28          2          8         56         82       21.9       13.6    1009.73     202.20
8:40               29          3          5         55         82       21.7       13.7    1009.70     202.20
9:00               32          2          5         56         82       21.5       14.3    1009.76     202.20
9:20               63          2          5         57         79       21.5       15.3    1009.90     202.20
9:40               65          3          6         56         74       22.1       16.4    1009.80     202.20
10:00              68          3          8         55         71       22.4       17.1    1009.80     202.20
10:20              90          2          6         55         71       22.7       17.8    1009.97     202.20
10:40              75          5         13         54         68       22.9       18.4    1009.80     202.20
11:00              49          2         13         54         65       23.3       18.8    1009.97     202.20
11:20              64          2          8         53         64       23.3       19.0    1009.90     202.20
11:40              84          2          6         53         63       23.3       19.3    1009.80     202.20
12:00              84          2          6         53         64       23.2       19.4    1009.63     202.20
12:20              96          3          6         54         64       23.1       19.8    1009.49     202.20
12:40              72          0          3         55         63       23.1       20.1    1009.56     202.20
13:00              77          0          5         55         61       23.2       20.7    1009.09     202.20
13:20             311          6         10         53         56       23.5       21.8    1008.82     202.20
13:40              46          0          6         52         54       23.7       22.3    1008.51     202.20
14:00              12          3          6         51         51       23.9       22.6    1008.34     202.20
14:20              38          5          5         51         51       23.9       23.1    1008.18     202.20
14:40              71          2          6         51         49       24.0       23.6    1007.97     202.20
15:00              70          0          6         51         48       24.2       23.8    1007.77     202.20
15:20              67          0          3         52         48       24.3       24.3    1007.80     202.20
15:40             334          0          3         51         47       24.4       24.8    1007.80     202.20
16:00             355          0          6         51         47       24.7       25.3    1007.63     202.20
16:20             196          0          6         52         48       24.9       24.8    1007.53     202.20
16:40             164          2          6         53         47       25.0       24.7    1007.30     202.20
17:00             195          0          8         52         47       25.1       24.6    1006.96     202.20
17:20             165          2          6         51         49       25.2       24.6    1006.52     202.20
17:40             164          0          3         51         53       25.1       24.2    1006.28     202.20
18:00             206          0          3         50         50       25.0       24.2    1006.08     202.20
18:20             272          0          3         50         52       25.0       23.9    1006.05     202.20
18:40             295          2          3         50         52       25.0       23.9    1005.81     202.20
19:00             296          0          3         51         50       24.9       23.9    1005.98     202.20
19:20             294          0          2         52         58       24.9       23.6    1005.78     202.20
19:40             217          2          5         53         55       25.0       23.5    1005.94     202.20
20:00             214          2          5         53         59       25.1       22.8    1005.84     202.20
20:20             205          2          3         54         62       25.1       22.4    1005.98     202.20
20:40             215          2          5         55         67       25.1       21.6    1006.01     202.20
0:00              207          6         11         49         68       33.3       25.9    1012.43     272.80
0:20              236          5         14         49         73       33.2       25.4    1012.60     272.80
0:40              240          0         11         50         76       33.2       25.0    1012.74     272.80
1:00              215          6         13         51         78       33.2       24.7    1012.71     272.80
1:20              207          2         10         52         80       33.1       24.3    1012.54     272.80
1:40              238          0          5         52         80       33.1       24.1    1012.50     272.80
2:00              229          3          8         52         80       33.0       23.9    1012.43     272.80
2:20              250          2          8         53         80       32.8       23.8    1012.47     272.80
2:40              257          0          3         53         80       32.8       23.8    1012.37     272.80
3:00              270          0          6         53         81       32.8       23.8    1012.37     272.80
3:20              274          3          6         53         81       32.7       23.7    1012.27     272.80
3:40              284          0          6         53         80       32.7       23.4    1012.23     272.80
4:00              287          0          6         53         80       32.6       23.2    1012.23     272.80
4:20              290          0          3         52         78       32.6       23.1    1012.10     272.80
4:40              290          0          6         52         77       32.6       22.9    1011.96     272.80
5:00              301          2          6         52         75       32.5       23.2    1011.86     272.80
5:20              299          0          3         51         75       32.4       22.8    1011.72     272.80
5:40              299          0          3         51         75       32.3       22.8    1011.79     272.80
6:00              298          2          6         51         75       32.3       22.8    1011.79     272.80
6:20              298          0          3         50         75       32.3       22.8    1011.66     272.80
6:40              298          0          0         50         76       32.1       22.7    1011.72     272.80
7:00              298          2          2         50         77       32.1       22.6    1011.76     272.80
7:20              298          2          2         49         78       31.8       22.3    1011.72     272.80
7:40              298          0          2         51         79       30.9       22.2    1011.45     272.80
8:00              299          0          3         52         79       30.8       22.2    1011.62     272.80
8:20              299          0          2         51         78       31.4       22.7    1011.66     272.80
8:40              309          2          6         51         76       31.7       23.4    1011.79     272.80
9:00              317          2          6         50         73       32.1       24.4    1011.79     272.80
9:20              317          0          3         50         69       32.5       25.4    1011.66     272.80
9:40              317          0          3         49         63       33.1       26.4    1011.72     272.80
10:00             317          0          3         48         59       33.3       27.0    1011.76     272.80
10:20             319          0          3         47         57       33.7       27.6    1011.56     272.80
10:40              42          0          3         46         53       33.9       28.5    1011.52     272.80
11:00              40          0          3         45         51       34.1       29.4    1011.42     272.80
11:20              36          0          3         45         51       34.3       29.5    1011.18     272.80
11:40             227          2          6         45         49       34.4       30.1    1011.08     272.80
12:00             229          0          6         44         47       34.4       30.7    1011.05     272.80
12:20             129          8         10         44         44       34.6       31.7    1010.88     272.80
12:40             152          2         14         44         44       34.4       31.7    1010.64     272.80
13:00             174          6         14         43         42       34.3       31.9    1010.47     272.80
13:20              98          8         18         43         44       34.3       31.8    1010.27     272.80
13:40             146          8         18         43         46       34.2       32.1    1010.07     272.80
14:00             191         13         23         44         45       34.1       32.9    1009.63     272.80
14:20             215          6         21         44         42       34.1       33.2    1009.53     272.80
14:40             187         13         24         44         44       34.1       33.4    1009.22     272.80
15:00             165          8         24         43         42       34.2       34.1    1009.05     272.80
15:20             133         18         19         43         37       34.2       34.3    1008.85     272.80
15:40             159         19         21         42         38       34.2       34.5    1008.61     272.80
16:00             171         11         21         42         39       34.2       34.4    1008.34     272.80
16:20             138         10         19         42         40       34.2       34.8    1007.87     272.80
16:40             173          6         21         42         40       34.2       35.3    1007.57     272.80
17:00             180         18         31         42         40       34.2       35.6    1007.40     272.80
17:20             188          3         24         42         40       34.2       35.8    1007.16     272.80
17:40             267         11         18         42         34       34.2       36.3    1006.89     272.80
18:00             192         11         19         40         34       34.2       36.1    1006.69     272.80
18:20             235          2         19         39         32       34.3       35.9    1006.59     272.80
18:40             200          2         18         41         33       34.3       35.7    1006.45     272.80
19:00             220         18         27         43         34       34.1       35.0    1006.28     272.80
19:20             198         23         26         45         35       34.2       34.8    1006.32     272.80
19:40             228          5         19         44         35       34.2       34.1    1006.35     272.80
20:00             211          0         23         43         37       34.2       33.3    1006.62     272.80
20:20             212          8         23         43         41       34.2       32.8    1006.72     272.80
20:40             234          3         23         42         42       34.1       32.1    1006.89     272.80
21:00             235          2         23         42         42       33.9       31.7    1006.96     272.80
21:20             223          2         21         40         41       33.7       31.1    1006.96     272.80
21:40             213          3         10         40         43       33.6       30.3    1007.23     272.80
22:00             224          0         10         40         46       33.4       29.5    1007.43     272.80
22:20             216          5          8         41         48       33.3       28.7    1007.63     272.80
22:40             219          0          6         42         53       33.1       27.9    1008.01     272.80
23:00             246          2          8         43         57       33.0       27.1    1008.21     272.80
23:20             212          2          6         44         60       32.8       26.4    1008.31     272.80
23:40             212          0         13         45         63       33.1       25.9    1008.55     272.80
Miembro de: